SL-8 DEB, 1591

Orbit data source: Space-Track

SL-8 DEB, 1591 is space debris in LEO originally from a launch on Sat, 18 Sep 1965 UTC launched from the Tyuratam Missile And Space Complex (TTMTR). Debris objects in space refer to the collection of defunct objects orbiting the Earth. Examples of debris include non-operational satellites, rocket bodies, and fragments generated from explosions, collisions, or faulty payload assembly.

Loading next visibility...
Identifier
1591, 1965-073H
Orbit
LEO
Country
Flag of CISCIS
Related business
Manufacturer
Unknown
Mission
Spacecraft
Bus & Motor
Unknown
Mass
Unknown
Launch date (UTC)
1965-09-18 (60 years ago)
Launch vehicle
Unknown
Launch site
Tyuratam Missile And Space Complex (TTMTR)
Object type
Payload
Rocket body
Debris
Shape & HBR
Unknown shape, 0.1 m
Radar Cross Section
Small (<0.1 m²)

Expand to show TLE details & history
Last TLE update: 1 day ago

TLE from 1 day ago
0 SL-8 DEB
1  1591U 65073H   25310.33169941  .00000602  00000-0  47991-2 0  9994
2  1591  56.0607  22.6940 0155625  34.6587  37.1189 12.42972801721018
Epoch: 2025-11-06T07:57Z
TLE epoch observation values (Epoch: 2025-11-06T07:57:38.829Z)
Latitude
52.58073°
Longitude
-81.43697°
Altitude
1,403.866 km
Speed
7.208 km/s
True Right ascension
05h 35m 03s
True Declination
52° 25' 42"
Sunlit
Object was in full shadow at epoch
Visualization orbit readout
Latitude
Unknown
Longitude
Unknown
Altitude
Unknown
Speed
Unknown
Apparent Right ascension
Unknown
Apparent Declination
Unknown
Sunlit
N/A
Visualization observer readout
Local Sidereal Time
08:16:53
Azimuth
Unknown
Elevation
Unknown
Doppler factor
Unknown
Orbital elements
Apogee altitude
1,616.357 km
Perigee altitude
1,371.342 km
Semi-major axis
7,871.987 km
Eccentricity
0.01556
Inclination
56.0607°
RAAN
22.694°
Arg. of periapsis
34.6587°
True anomaly
38.21197°
Mean anomaly
37.1189°
Eccentric anomaly
37.66373°
Mean motion
3.10754 °/min
Orbital period
115.85 mins
BSTAR
0.0047991
Loading maneuver chart data...
Computing Atmospheric mass density...
Loading historical data...
Loading historical data...
Loading historical data...
Loading historical data...
Loading historical data...
Loading historical data...
Loading historical data...

Documentation

Showing up to 5 results
|